Weather History for KBTA - February, 2014

Change the Weather History Date:

Saturday, February 15, 2014

  Actual Average (KOMA) Record (KOMA)
Temperature  
Mean Temperature 37 °F 28 °F  
Max Temperature 56 °F 38 °F 74 °F (1921)
Min Temperature 18 °F 18 °F -12 °F (1936)
Degree Days  
Heating Degree Days 28 37  
Month to date heating degree days 583  
Since 1 July heating degree days 4348  
Cooling Degree Days 0 0  
Month to date cooling degree days 0  
Year to date cooling degree days 0  
Moisture  
Dew Point 22 °F    
Average Humidity 66    
Maximum Humidity 81    
Minimum Humidity 28    
Precipitation  
Precipitation 0.00 in 0.03 in 0.58 in (2003)
Month to date precipitation 0.41  
Year to date precipitation 1.13  
Snow  
Snow 0.00 in 0.30 in - ()
Month to date snowfall 3.5  
Since 1 July snowfall 18.6  
Snow Depth -    
Sea Level Pressure  
Sea Level Pressure 29.90 in    
Wind  
Wind Speed 12 mph (SSW)    
Max Wind Speed 33 mph    
Max Gust Speed 40 mph    
Visibility 10 miles    
Events Snow    
T = Trace of Precipitation, MM = Missing Value Source: NWS Daily Summary

Daily Weather History Graph

Daily Weather History Graph

Search for Another Location

Airport or City:

Trip Planner

Search our weather history database for the weather conditions in past years. The results will help you decide how hot, cold, wet, or windy it might be!

Date:

Astronomy

Feb. 15, 2014 Rise Set
Actual Time 7:19 AM CST 5:58 PM CST
Civil Twilight 6:51 AM CST 6:26 PM CST
Nautical Twilight 6:18 AM CST 6:59 PM CST
Astronomical Twilight 5:46 AM CST 7:31 PM CST
Moon 7:00 PM CST (2/15) 7:17 AM CST (2/15)
Length of Visible Light 11h 35m
Length of Day
10h 38m
Waxing Gibbous, 99% of the Moon is Illuminated
Feb 15
Waxing Gibbous
Feb 22
Last Quarter
Mar 1
New
Mar 8
First Quarter
Mar 16
Full

Hourly Weather History & Observations

Time (CST) Temp. Windchill Dew Point Humidity Pressure Visibility Wind Dir Wind Speed Gust Speed Precip Events Conditions
12:15 AM 18.3 °F 13.1 °F 9.7 °F 69% 30.01 in 10.0 mi SE 3.5 mph - N/A   Clear
12:35 AM 19.0 °F 12.3 °F 9.5 °F 66% 30.02 in 10.0 mi SE 4.6 mph - N/A   Clear
12:55 AM 18.9 °F 12.1 °F 10.2 °F 69% 30.02 in 10.0 mi SSE 4.6 mph - N/A   Clear
1:15 AM 19.0 °F 10.0 °F 10.6 °F 70% 30.01 in 10.0 mi SE 6.9 mph - N/A   Clear
1:35 AM 19.4 °F 11.5 °F 11.3 °F 71% 30.01 in 10.0 mi SE 5.8 mph - N/A   Clear
1:55 AM 19.9 °F 12.1 °F 11.3 °F 69% 30.01 in 10.0 mi SSE 5.8 mph - N/A   Scattered Clouds
2:15 AM 19.9 °F 11.1 °F 11.3 °F 69% 29.99 in 10.0 mi SSE 6.9 mph - N/A   Scattered Clouds
2:35 AM 20.3 °F 9.0 °F 12.2 °F 71% 29.98 in 10.0 mi South 10.4 mph - N/A   Scattered Clouds
2:55 AM 20.5 °F 9.2 °F 11.3 °F 68% 29.98 in 10.0 mi South 10.4 mph - N/A   Scattered Clouds
3:15 AM 20.5 °F 9.2 °F 11.3 °F 68% 29.97 in 10.0 mi SSE 10.4 mph - N/A   Scattered Clouds
3:35 AM 20.5 °F 8.0 °F 11.3 °F 68% 29.95 in 10.0 mi SSE 12.7 mph - N/A   Scattered Clouds
3:55 AM 20.3 °F 7.7 °F 11.8 °F 70% 29.93 in 10.0 mi SSE 12.7 mph - N/A   Overcast
4:15 AM 20.8 °F 8.4 °F 12.2 °F 69% 29.92 in 10.0 mi SSE 12.7 mph - N/A   Overcast
4:35 AM 21.7 °F 8.0 °F 12.7 °F 68% 29.92 in 10.0 mi South 16.1 mph - N/A   Overcast
4:55 AM 22.1 °F 8.5 °F 13.5 °F 69% 29.92 in 10.0 mi South 16.1 mph - N/A   Overcast
5:15 AM 22.6 °F 10.1 °F 13.8 °F 69% 29.90 in 10.0 mi SSE 13.8 mph - N/A   Overcast
5:35 AM 23.0 °F 9.2 °F 14.5 °F 70% 29.89 in 10.0 mi South 17.3 mph - N/A   Overcast
5:55 AM 23.4 °F 10.1 °F 15.1 °F 71% 29.89 in 10.0 mi South 16.1 mph - N/A   Overcast
6:15 AM 23.9 °F 11.2 °F 15.8 °F 71% 29.89 in 10.0 mi SSE 15.0 mph - N/A   Overcast
6:35 AM 23.7 °F 11.0 °F 15.6 °F 71% 29.88 in 10.0 mi SSE 15.0 mph - N/A   Overcast
6:55 AM 23.9 °F 11.2 °F 15.8 °F 71% 29.87 in 10.0 mi South 15.0 mph - N/A   Overcast
7:15 AM 24.3 °F 11.7 °F 15.8 °F 70% 29.85 in 10.0 mi SSE 15.0 mph 19.6 mph N/A   Overcast
7:35 AM 24.4 °F 11.9 °F 16.5 °F 72% 29.86 in 10.0 mi SSE 15.0 mph - N/A   Overcast
7:55 AM 24.6 °F 13.8 °F 16.9 °F 72% 29.86 in 10.0 mi SSE 11.5 mph 19.6 mph N/A   Overcast
8:15 AM 24.8 °F 14.6 °F 17.6 °F 74% 29.86 in 10.0 mi SSE 10.4 mph - N/A   Overcast
8:35 AM 25.5 °F 14.9 °F 18.0 °F 73% 29.87 in 10.0 mi SSE 11.5 mph - N/A   Overcast
8:55 AM 25.9 °F 16.6 °F 18.1 °F 73% 29.89 in 10.0 mi South 9.2 mph 16.1 mph N/A   Overcast
9:15 AM 26.2 °F 15.2 °F 18.3 °F 72% 29.88 in 10.0 mi SSE 12.7 mph - N/A   Overcast
9:35 AM 26.6 °F 15.2 °F 19.4 °F 74% 29.88 in 4.0 mi South 13.8 mph - N/A Snow Light Snow
9:55 AM 26.4 °F 13.6 °F 21.4 °F 81% 29.86 in 1.2 mi South 17.3 mph - N/A Snow Light Snow
10:15 AM 27.3 °F 14.4 °F 22.1 °F 81% 29.84 in 5.0 mi South 18.4 mph - N/A Snow Light Snow
10:35 AM 27.9 °F 14.4 °F 22.5 °F 80% 29.83 in 7.0 mi South 20.7 mph 24.2 mph N/A Snow Light Snow
10:55 AM 28.6 °F 16.4 °F 23.2 °F 80% 29.84 in 10.0 mi South 17.3 mph - N/A   Clear
11:15 AM 30.2 °F 18.1 °F 23.4 °F 76% 29.83 in 10.0 mi South 18.4 mph 24.2 mph N/A   Scattered Clouds
11:35 AM 31.8 °F 19.9 °F 23.9 °F 73% 29.82 in 10.0 mi South 19.6 mph - N/A   Scattered Clouds
11:55 AM 33.6 °F 22.2 °F 25.0 °F 71% 29.81 in 10.0 mi SSW 19.6 mph 25.3 mph N/A   Mostly Cloudy
12:15 PM 35.4 °F 25.6 °F 25.7 °F 68% 29.81 in 10.0 mi SSW 16.1 mph - N/A   Overcast
12:35 PM 37.0 °F 28.1 °F 26.1 °F 65% 29.81 in 10.0 mi South 15.0 mph 21.9 mph N/A   Scattered Clouds
12:55 PM 39.9 °F 30.8 °F 27.7 °F 62% 29.79 in 10.0 mi SSW 18.4 mph - N/A   Clear
1:15 PM 40.8 °F 32.3 °F 28.0 °F 60% 29.78 in 10.0 mi SSW 17.3 mph 21.9 mph N/A   Clear
1:35 PM 42.4 °F 34.7 °F 28.8 °F 58% 29.78 in 10.0 mi SW 16.1 mph 24.2 mph N/A   Clear
1:55 PM 44.4 °F 37.2 °F 29.8 °F 57% 29.77 in 10.0 mi SSW 16.1 mph 20.7 mph N/A   Clear
2:15 PM 45.7 °F 39.5 °F 30.2 °F 55% 29.77 in 10.0 mi SSW 13.8 mph - N/A   Clear
2:35 PM 47.5 °F - 30.9 °F 53% 29.76 in 10.0 mi SSW 11.5 mph - N/A   Clear
2:55 PM 50.2 °F - 31.8 °F 49% 29.75 in 10.0 mi SSW 11.5 mph - N/A   Clear
3:15 PM 52.3 °F - 32.0 °F 46% 29.74 in 10.0 mi SSW 13.8 mph - N/A   Clear
3:35 PM 52.9 °F - 32.0 °F 45% 29.75 in 10.0 mi SSW 10.4 mph - N/A   Scattered Clouds
3:55 PM 56.8 °F - 23.7 °F 28% 29.76 in 10.0 mi WNW 19.6 mph 32.2 mph N/A   Scattered Clouds
4:15 PM 55.9 °F - 23.4 °F 28% 29.76 in 10.0 mi NW 23.0 mph 35.7 mph N/A   Scattered Clouds
4:35 PM 55.0 °F - 25.2 °F 32% 29.78 in 10.0 mi NW 27.6 mph 36.8 mph N/A   Scattered Clouds
4:55 PM 53.1 °F - 28.4 °F 39% 29.80 in 10.0 mi NW 28.8 mph 40.3 mph N/A   Clear
5:15 PM 50.9 °F - 28.9 °F 43% 29.82 in 10.0 mi NW 33.4 mph 40.3 mph N/A   Clear
5:35 PM 49.1 °F - 28.6 °F 45% 29.85 in 10.0 mi NW 27.6 mph 35.7 mph N/A   Clear
5:55 PM 46.9 °F - 28.4 °F 49% 29.88 in 10.0 mi NW 21.9 mph 35.7 mph N/A   Clear
6:15 PM 45.5 °F 37.6 °F 28.9 °F 52% 29.90 in 10.0 mi NW 20.7 mph 31.1 mph N/A   Clear
6:35 PM 44.2 °F 36.2 °F 29.7 °F 57% 29.91 in 10.0 mi NW 19.6 mph 24.2 mph N/A   Clear
6:55 PM 42.6 °F 34.6 °F 29.8 °F 61% 29.93 in 10.0 mi NW 17.3 mph 21.9 mph N/A   Clear
7:15 PM 42.1 °F 33.3 °F 29.8 °F 62% 29.94 in 10.0 mi NW 19.6 mph 24.2 mph N/A   Clear
7:35 PM 41.0 °F 31.9 °F 29.7 °F 64% 29.95 in 10.0 mi NW 19.6 mph 25.3 mph N/A   Clear
7:55 PM 41.2 °F 32.4 °F 30.2 °F 65% 29.96 in 10.0 mi NNW 18.4 mph 31.1 mph N/A   Clear
8:15 PM 38.7 °F 29.1 °F 29.8 °F 71% 29.97 in 10.0 mi North 18.4 mph 25.3 mph N/A   Clear
8:35 PM 35.8 °F 25.4 °F 29.1 °F 77% 29.97 in 10.0 mi North 18.4 mph 24.2 mph N/A   Clear
8:55 PM 34.2 °F 24.8 °F 28.4 °F 79% 29.99 in 10.0 mi NNW 13.8 mph - N/A   Scattered Clouds
9:15 PM 34.3 °F 26.5 °F 28.4 °F 79% 30.00 in 10.0 mi North 10.4 mph - N/A   Overcast
9:35 PM 34.0 °F 25.0 °F 28.4 °F 80% 30.00 in 10.0 mi North 12.7 mph 17.3 mph N/A   Overcast
9:55 PM 34.2 °F 24.8 °F 28.4 °F 79% 30.01 in 10.0 mi NNW 13.8 mph 23.0 mph N/A   Mostly Cloudy
10:15 PM 34.0 °F 23.8 °F 27.9 °F 78% 30.02 in 10.0 mi NNW 16.1 mph 19.6 mph N/A   Scattered Clouds
10:35 PM 32.9 °F 23.7 °F 27.1 °F 79% 30.03 in 10.0 mi North 12.7 mph - N/A   Scattered Clouds
10:55 PM 32.0 °F 23.0 °F 26.4 °F 80% 30.04 in 10.0 mi NNW 11.5 mph 18.4 mph N/A   Mostly Cloudy
11:15 PM 32.0 °F 22.1 °F 26.2 °F 79% 30.03 in 10.0 mi North 13.8 mph 18.4 mph N/A   Overcast
11:35 PM 31.6 °F 22.1 °F 25.9 °F 79% 30.03 in 10.0 mi NNW 12.7 mph - N/A   Overcast
11:55 PM 31.1 °F 19.3 °F 25.7 °F 80% 30.03 in 10.0 mi NNW 18.4 mph 24.2 mph N/A   Overcast